Weather in Fontainebleau

France     48°24′21″N   2°41′40″E
temp.,
°C
wind,
m/s
gust,
m/s
humid.,
%
clouds,
%
prec.,
mm/h
press.,
hPa
HPBL,
m
7 may, fri
fri723:00+6nw1397100 0.6 1010108
02:00+5nw249697 0.9 1012122
05:00+4nw349710 0.0 101485
08:00+5w25920 0.0 1016150
11:00+11wnw34570 0.0 10181242
14:00+14wnw22415 0.0 10191955
17:00+15sw2339100 0.0 10182290
20:00+12s2462100 0.0 101875
8 may, sat
sat823:00+7sse336654 0.0 101938
02:00+7sse3477100 0.0 101860
05:00+8sse3965100 0.0 1016246
08:00+10sse41068100 0.0 1015358
11:00+14ssw5970100 0.0 1014684
14:00+15s497579 0.0 1013755
17:00+21sw6854100 0.0 10101614
20:00+18s237396 0.0 100936
9 may, sun
sun923:00+13se37885 0.0 1008105
02:00+13se41282100 0.0 1006226
05:00+14sse4148092 0.0 1003296
08:00+15s51479100 0.2 1003431
11:00+20s7126216 0.2 1003846
14:00+23s7105698 0.2 10021098
17:00+25ssw7125490 0.1 10002429
20:00+15ssw61289100 1.4 1001435
10 may, mon
mon1023:00+15sse61590100 0.2 1000602
02:00+13ssw61294100 0.4 1002693
05:00+12ssw51197100 3.4 1003704
08:00+12sw5119397 5.1 1006796
11:00+15sw7106644 0.1 10081360
14:00+16sw4762100 0.1 10071533
17:00+16s3574100 1.2 1008649
20:00+13sse3584100 1.7 1008112
11 may, tue
tue1123:00+10s4993100 0.0 1009204
02:00+10sse3795100 0.0 1009200
05:00+9ese3696100 0.0 1008139
08:00+10e119294 0.1 1008108
11:00+12ne1188100 0.3 1008255
14:00+12nne2285100 1.0 1008352
17:00+15nnw236886 0.3 1007996
20:00+11nw6109595 3.1 1009519